Weather History for KSLG - December, 2012

Change the Weather History Date:

Wednesday, December 19, 2012

  Actual Average Record
Temperature  
Mean Temperature 52 °F -  
Max Temperature 64 °F 43 °F 64 °F (1997)
Min Temperature 41 °F 26 °F 6 °F (2000)
Degree Days  
Heating Degree Days 12    
Growing Degree Days 2 (Base 50)    
Moisture  
Dew Point 45 °F    
Average Humidity 68    
Maximum Humidity 77    
Minimum Humidity 55    
Precipitation  
Precipitation 0.00 in - - ()
Sea Level Pressure  
Sea Level Pressure 29.67 in    
Wind  
Wind Speed 10 mph (SE)    
Max Wind Speed 22 mph    
Max Gust Speed 29 mph    
Visibility 10 miles    
Events Thunderstorm    
Averages and records for this station are not official NWS values.
T = Trace of Precipitation, MM = Missing Value Source: NWS Daily Summary

Daily Weather History Graph

Daily Weather History Graph

Search for Another Location

Airport or City:

Trip Planner

Search our weather history database for the weather conditions in past years. The results will help you decide how hot, cold, wet, or windy it might be!

Date:

Astronomy

Dec. 19, 2012 Rise Set
Actual Time 7:24 AM CST 5:06 PM CST
Civil Twilight 6:55 AM CST 5:34 PM CST
Nautical Twilight 6:23 AM CST 6:07 PM CST
Astronomical Twilight 5:52 AM CST 6:38 PM CST
Moon 11:45 AM CST (12/19) No Moon Set
Length of Visible Light 10h 39m
Length of Day
9h 41m
Waxing Crescent, 45% of the Moon is Illuminated
Dec 19
Waxing Crescent
Dec 19
First Quarter
Dec 28
Full
Jan 4
Last Quarter
Jan 11
New

Hourly Weather History & Observations

Time (CST) Temp. Windchill Dew Point Humidity Pressure Visibility Wind Dir Wind Speed Gust Speed Precip Events Conditions
12:15 AM 41.0 °F 37.1 °F 30.2 °F 65% 29.85 in 10.0 mi East 5.8 mph - N/A   Clear
12:55 AM 42.8 °F 38.6 °F 30.2 °F 61% 29.84 in 10.0 mi East 6.9 mph - N/A   Clear
1:15 AM 42.8 °F 38.6 °F 30.2 °F 61% 29.83 in 10.0 mi East 6.9 mph - N/A   Clear
1:55 AM 42.8 °F 38.6 °F 30.2 °F 61% 29.84 in 10.0 mi East 6.9 mph - N/A   Clear
2:15 AM 42.8 °F 38.0 °F 30.2 °F 61% 29.83 in 10.0 mi East 8.1 mph - N/A   Clear
2:35 AM 41.0 °F 36.4 °F 30.2 °F 65% 29.83 in 10.0 mi East 6.9 mph - N/A   Clear
2:55 AM 41.0 °F 35.8 °F 30.2 °F 65% 29.82 in 10.0 mi East 8.1 mph - N/A   Clear
3:15 AM 42.8 °F 38.6 °F 30.2 °F 61% 29.82 in 10.0 mi East 6.9 mph - N/A   Clear
3:35 AM 42.8 °F 38.0 °F 30.2 °F 61% 29.82 in 10.0 mi East 8.1 mph - N/A   Clear
3:56 AM 42.8 °F 38.0 °F 30.2 °F 61% 29.81 in 10.0 mi East 8.1 mph - N/A   Clear
4:15 AM 42.8 °F 38.6 °F 30.2 °F 61% 29.80 in 10.0 mi East 6.9 mph - N/A   Clear
4:35 AM 42.8 °F 39.3 °F 30.2 °F 61% 29.80 in 10.0 mi ENE 5.8 mph - N/A   Clear
5:15 AM 44.6 °F 38.8 °F 30.2 °F 57% 29.78 in 10.0 mi East 11.5 mph - N/A   Clear
5:35 AM 42.8 °F 37.0 °F 30.2 °F 61% 29.78 in 10.0 mi East 10.4 mph - N/A   Clear
6:35 AM 42.8 °F 37.0 °F 30.2 °F 61% 29.78 in 10.0 mi East 10.4 mph - N/A   Clear
6:55 AM 42.8 °F 36.6 °F 30.2 °F 61% 29.77 in 10.0 mi ESE 11.5 mph - N/A   Clear
7:35 AM 42.8 °F 38.0 °F 32.0 °F 66% 29.77 in 10.0 mi East 8.1 mph - N/A   Clear
7:55 AM 44.6 °F 39.7 °F 32.0 °F 61% 29.77 in 10.0 mi East 9.2 mph - N/A   Mostly Cloudy
8:15 AM 44.6 °F 40.2 °F 33.8 °F 66% 29.77 in 10.0 mi East 8.1 mph - N/A   Scattered Clouds
8:35 AM 44.6 °F 39.7 °F 33.8 °F 66% 29.77 in 10.0 mi East 9.2 mph - N/A   Clear
8:55 AM 48.2 °F - 35.6 °F 62% 29.77 in 10.0 mi ESE 8.1 mph - N/A   Clear
10:35 AM 60.8 °F - 50.0 °F 68% 29.75 in 10.0 mi South 15.0 mph 21.9 mph N/A   Mostly Cloudy
11:15 AM 62.6 °F - 51.8 °F 68% 29.74 in 10.0 mi South 17.3 mph - N/A   Overcast
11:55 AM 60.8 °F - 51.8 °F 72% 29.71 in 10.0 mi South 11.5 mph - N/A   Overcast
12:15 PM 62.6 °F - 51.8 °F 68% 29.70 in 10.0 mi South 10.4 mph 16.1 mph N/A   Overcast
12:35 PM 62.6 °F - 53.6 °F 72% 29.69 in 10.0 mi South 11.5 mph - N/A   Overcast
12:55 PM 62.6 °F - 53.6 °F 72% 29.67 in 10.0 mi SSE 11.5 mph 21.9 mph N/A   Overcast
1:35 PM 62.6 °F - 53.6 °F 72% 29.66 in 10.0 mi South 15.0 mph 20.7 mph N/A   Overcast
1:55 PM 62.6 °F - 53.6 °F 72% 29.65 in 10.0 mi South 17.3 mph 20.7 mph N/A   Overcast
2:15 PM 62.6 °F - 53.6 °F 72% 29.64 in 10.0 mi South 13.8 mph 18.4 mph N/A   Overcast
2:36 PM 62.6 °F - 53.6 °F 72% 29.64 in 10.0 mi SSE 13.8 mph 21.9 mph N/A   Overcast
2:55 PM 62.6 °F - 53.6 °F 72% 29.62 in 10.0 mi SSE 15.0 mph - N/A   Overcast
3:15 PM 62.6 °F - 53.6 °F 72% 29.61 in 10.0 mi SSE 13.8 mph 20.7 mph N/A   Mostly Cloudy
4:15 PM 62.6 °F - 53.6 °F 72% 29.59 in 10.0 mi SSE 11.5 mph 19.6 mph N/A   Scattered Clouds
4:35 PM 60.8 °F - 53.6 °F 77% 29.58 in 10.0 mi SSE 11.5 mph 18.4 mph N/A   Clear
4:56 PM 60.8 °F - 53.6 °F 77% 29.59 in 10.0 mi SSE 15.0 mph 20.7 mph N/A   Clear
5:15 PM 60.8 °F - 53.6 °F 77% 29.59 in 10.0 mi SSE 13.8 mph - N/A   Mostly Cloudy
5:35 PM 60.8 °F - 53.6 °F 77% 29.59 in 10.0 mi SSE 10.4 mph - N/A   Mostly Cloudy
5:55 PM 60.8 °F - 53.6 °F 77% 29.59 in 10.0 mi SSE 11.5 mph - N/A   Mostly Cloudy
6:16 PM 62.6 °F - 53.6 °F 72% 29.58 in 10.0 mi South 10.4 mph 19.6 mph N/A   Scattered Clouds
6:35 PM 62.6 °F - 53.6 °F 72% 29.57 in 10.0 mi SSE 15.0 mph - N/A   Clear
6:55 PM 62.6 °F - 55.4 °F 77% 29.55 in 10.0 mi SSE 13.8 mph 26.5 mph N/A   Clear
7:15 PM 64.4 °F - 55.4 °F 73% 29.56 in 10.0 mi South 17.3 mph 27.6 mph N/A   Partly Cloudy
7:35 PM 64.4 °F - 55.4 °F 73% 29.56 in 10.0 mi South 17.3 mph 26.5 mph N/A   Scattered Clouds
7:55 PM 64.4 °F - 55.4 °F 73% 29.55 in 10.0 mi South 13.8 mph 26.5 mph N/A   Scattered Clouds
8:15 PM 64.4 °F - 55.4 °F 73% 29.53 in 10.0 mi South 16.1 mph 25.3 mph N/A Thunderstorm Thunderstorm
8:35 PM 64.4 °F - 55.4 °F 73% 29.53 in 10.0 mi South 12.7 mph 19.6 mph N/A Thunderstorm Thunderstorm
8:55 PM 62.6 °F - 55.4 °F 77% 29.51 in 10.0 mi SSW 15.0 mph 28.8 mph N/A Thunderstorm Thunderstorm
9:35 PM 64.4 °F - 55.4 °F 73% 29.48 in 10.0 mi South 19.6 mph 25.3 mph N/A   Mostly Cloudy
9:55 PM 64.4 °F - 51.8 °F 64% 29.48 in 10.0 mi SSW 19.6 mph 27.6 mph N/A   Mostly Cloudy
10:15 PM 62.6 °F - 51.8 °F 68% 29.47 in 10.0 mi South 21.9 mph 26.5 mph N/A Thunderstorm Overcast
10:35 PM 62.6 °F - 48.2 °F 59% 29.46 in 10.0 mi South 18.4 mph 24.2 mph N/A   Overcast
10:55 PM 62.6 °F - 46.4 °F 55% 29.47 in 9.0 mi South 15.0 mph 24.2 mph N/A   Overcast
11:15 PM 60.8 °F - 46.4 °F 59% 29.47 in 10.0 mi South 20.7 mph 25.3 mph N/A   Overcast
11:35 PM 57.2 °F - 46.4 °F 67% 29.48 in 10.0 mi South 15.0 mph - N/A   Overcast